Location: Biharia
(46.4333°N, 22.8000°E)
Time: 23:14:22
(UTC+00:00)

ATLAS 5 CENTAUR R/B - Pass Details

Date: 16 October 2021
Orbit: 497 x 1159 km, 63.4° (Epoch: 25 November)

Event Time Altitude Azimuth Distance (km) Brightness Sun altitude
Rises 18:41:59 0° 248° (WSW) 2,624 5.4 -31.6°
Reaches altitude 10° 18:44:14 10° 260° (W) 1,786 4.6 -32.0°
Enters shadow 18:46:05 22° 282° (WNW) 1,240 3.7 -32.3°
